Location: Newark
(7.1028°S, 35.3258°W)
Time: 20:32:23
(UTC+00:00)

Vanguard 3 - Pass Details

Date: 25 February 2020
Orbit: 508 x 3263 km, 33.4° (Epoch: 05 April)

Event Time Altitude Azimuth Distance (km) Brightness Sun altitude
Exits shadow 06:05:26 16° 67° (ENE) 1,651 9.2 -35.0°
Drops below altitude 10° 06:06:12 10° 65° (ENE) 1,951 9.6 -34.8°
Sets 06:08:06 0° 62° (ENE) 2,725 10.4 -34.3°
